TVF7258 LFPO-DAOO

Flight info

Callsign TVF7258
Flight time 2h 13m
Altitude 35000
Route OLZOM DCT ERIXU DCT ETAMO DCT GUERE DCT AGN DCT ANETO DCT TURUV DCT GRAUS DCT LOBAR DCT SEROX DCT CASPE DCT MLA DCT CRETA DCT RIMES DCT SAURA DCT TATOS DCT PLANA DCT VLC DCT RIPUX DCT SUMMO DCT MAGAL DCT LIMTU DCT RINDI DCT HAMRA UA34 MOS
Aircraft B738/M-SDE2E3FGHIRWXY/LB1

Departure

Time 2026-05-06 11:30
Airport Paris-Orly Airport (LFPO)

Arrival

Time 2026-05-06 13:44
Airport Oran Es-Sénia (Ahmed Ben Bella) International Airport (DAOO)
Time Latitude Longitude Altitude Speed Heading
2026-05-06 11:11 48.72622 2.35805 294 ft 0 kts 75°
2026-05-06 11:16 48.72620 2.35799 295 ft 3 kts 75°
2026-05-06 11:16 48.72614 2.35759 299 ft 4 kts 77°
2026-05-06 11:16 48.72609 2.35719 293 ft 4 kts 83°
2026-05-06 11:17 48.72608 2.35680 294 ft 4 kts 107°
2026-05-06 11:17 48.72618 2.35658 295 ft 1 kts 164°
2026-05-06 11:20 48.72612 2.35660 294 ft 3 kts 164°
2026-05-06 11:20 48.72561 2.35682 294 ft 12 kts 164°
2026-05-06 11:20 48.72482 2.35693 292 ft 12 kts 202°
2026-05-06 11:21 48.72443 2.35582 296 ft 12 kts 250°
2026-05-06 11:21 48.72423 2.35462 294 ft 12 kts 254°
2026-05-06 11:21 48.72401 2.35344 297 ft 11 kts 254°
2026-05-06 11:21 48.72380 2.35230 293 ft 11 kts 254°
2026-05-06 11:22 48.72359 2.35120 292 ft 11 kts 254°
2026-05-06 11:22 48.72342 2.35011 295 ft 11 kts 262°
2026-05-06 11:22 48.72349 2.34903 295 ft 10 kts 289°
2026-05-06 11:22 48.72374 2.34801 296 ft 10 kts 290°
2026-05-06 11:23 48.72405 2.34706 295 ft 10 kts 296°
2026-05-06 11:23 48.72434 2.34612 294 ft 10 kts 294°
2026-05-06 11:23 48.72462 2.34520 294 ft 10 kts 294°
2026-05-06 11:23 48.72471 2.34486 293 ft 10 kts 294°
2026-05-06 11:24 48.72491 2.34420 296 ft 9 kts 294°
2026-05-06 11:24 48.72518 2.34331 293 ft 9 kts 290°
2026-05-06 11:24 48.72533 2.34268 295 ft 9 kts 291°
2026-05-06 11:24 48.72557 2.34179 293 ft 9 kts 290°
2026-05-06 11:25 48.72562 2.34085 296 ft 9 kts 261°
2026-05-06 11:25 48.72539 2.33997 292 ft 9 kts 242°
2026-05-06 11:25 48.72508 2.33908 292 ft 10 kts 242°
2026-05-06 11:25 48.72465 2.33789 295 ft 16 kts 242°
2026-05-06 11:26 48.72400 2.33608 295 ft 23 kts 242°
2026-05-06 11:26 48.72316 2.33370 294 ft 28 kts 242°
2026-05-06 11:26 48.72258 2.33203 294 ft 22 kts 242°
2026-05-06 11:26 48.72187 2.33000 293 ft 22 kts 242°
2026-05-06 11:27 48.72117 2.32802 293 ft 21 kts 242°
2026-05-06 11:27 48.72050 2.32610 294 ft 20 kts 242°
2026-05-06 11:27 48.71983 2.32425 295 ft 20 kts 240°
2026-05-06 11:27 48.71919 2.32245 296 ft 19 kts 242°
2026-05-06 11:28 48.71858 2.32071 292 ft 18 kts 242°
2026-05-06 11:28 48.71817 2.31893 292 ft 18 kts 270°
2026-05-06 11:28 48.71876 2.31741 292 ft 17 kts 329°
2026-05-06 11:28 48.71990 2.31737 293 ft 17 kts 21°
2026-05-06 11:29 48.72052 2.31843 294 ft 0 kts 62°
2026-05-06 11:29 48.72054 2.31848 293 ft 1 kts 62°
2026-05-06 11:29 48.72121 2.32035 290 ft 60 kts 62°
2026-05-06 11:29 48.72453 2.32977 295 ft 141 kts 62°
2026-05-06 11:30 48.72999 2.34503 713 ft 175 kts 60°
2026-05-06 11:30 48.73554 2.36209 1401 ft 184 kts 55°
2026-05-06 11:30 48.74235 2.37769 1906 ft 177 kts 56°
2026-05-06 11:30 48.74895 2.39581 1998 ft 215 kts 59°
2026-05-06 11:31 48.75647 2.41747 2015 ft 246 kts 60°
2026-05-06 11:31 48.76102 2.44294 2390 ft 259 kts 86°
2026-05-06 11:31 48.75988 2.47022 3374 ft 259 kts 92°
2026-05-06 11:31 48.75779 2.49752 4263 ft 263 kts 92°
2026-05-06 11:32 48.75565 2.52537 5078 ft 268 kts 92°
2026-05-06 11:32 48.75330 2.55352 5932 ft 273 kts 99°
2026-05-06 11:32 48.74498 2.57975 6700 ft 283 kts 128°
2026-05-06 11:32 48.72944 2.59817 7516 ft 288 kts 155°
2026-05-06 11:33 48.71001 2.60440 8377 ft 287 kts 183°
2026-05-06 11:33 48.69072 2.59769 9181 ft 284 kts 203°
2026-05-06 11:33 48.67245 2.58664 10097 ft 282 kts 205°
2026-05-06 11:33 48.65411 2.57500 10630 ft 294 kts 204°
2026-05-06 11:34 48.63460 2.56253 10853 ft 316 kts 205°
2026-05-06 11:34 48.61357 2.54907 10985 ft 339 kts 204°
2026-05-06 11:34 48.59128 2.53489 11279 ft 354 kts 204°
2026-05-06 11:34 48.56827 2.52033 11872 ft 360 kts 204°
2026-05-06 11:35 48.54506 2.50574 12590 ft 363 kts 204°
2026-05-06 11:35 48.52191 2.49124 13296 ft 366 kts 204°
2026-05-06 11:35 48.49823 2.47645 13934 ft 371 kts 204°
2026-05-06 11:35 48.47424 2.46152 14541 ft 374 kts 203°
2026-05-06 11:36 48.45008 2.44651 15193 ft 377 kts 203°
2026-05-06 11:36 48.42577 2.43142 15830 ft 379 kts 203°
2026-05-06 11:36 48.40124 2.41621 16440 ft 383 kts 203°
2026-05-06 11:36 48.37656 2.40093 17072 ft 385 kts 203°
2026-05-06 11:37 48.35167 2.38556 17661 ft 389 kts 203°
2026-05-06 11:37 48.32660 2.37007 18265 ft 391 kts 203°
2026-05-06 11:37 48.30133 2.35447 18778 ft 394 kts 202°
2026-05-06 11:37 48.27585 2.33874 19321 ft 396 kts 202°
2026-05-06 11:38 48.25033 2.32301 19850 ft 398 kts 202°
2026-05-06 11:38 48.22458 2.30714 20332 ft 401 kts 202°
2026-05-06 11:38 48.19871 2.29123 20919 ft 402 kts 202°
2026-05-06 11:38 48.17273 2.27529 21363 ft 406 kts 202°
2026-05-06 11:39 48.14560 2.26306 21813 ft 409 kts 187°
2026-05-06 11:39 48.11724 2.26107 22423 ft 409 kts 182°
2026-05-06 11:39 48.08861 2.25997 22801 ft 414 kts 182°
2026-05-06 11:39 48.05965 2.26009 23250 ft 417 kts 179°
2026-05-06 11:40 48.03093 2.26174 23698 ft 419 kts 178°
2026-05-06 11:40 48.00133 2.26399 24015 ft 423 kts 178°
2026-05-06 11:40 47.97232 2.26628 24408 ft 424 kts 178°
2026-05-06 11:40 47.94273 2.26854 24762 ft 427 kts 178°
2026-05-06 11:41 47.91298 2.27071 25097 ft 429 kts 178°
2026-05-06 11:41 47.88308 2.27279 25484 ft 430 kts 178°
2026-05-06 11:41 47.85308 2.27476 25805 ft 433 kts 178°
2026-05-06 11:41 47.82295 2.27668 26178 ft 434 kts 178°
2026-05-06 11:42 47.79270 2.27860 26509 ft 436 kts 177°
2026-05-06 11:42 47.76234 2.28054 26864 ft 437 kts 177°
2026-05-06 11:42 47.73191 2.28250 27193 ft 438 kts 177°
2026-05-06 11:42 47.70130 2.28444 27457 ft 441 kts 177°
2026-05-06 11:43 47.67105 2.28632 27837 ft 441 kts 177°
2026-05-06 11:43 47.63990 2.28826 28087 ft 444 kts 177°
2026-05-06 11:43 47.60893 2.29020 28341 ft 446 kts 177°
2026-05-06 11:44 47.54711 2.29408 28977 ft 448 kts 177°
2026-05-06 11:44 47.51609 2.29603 29416 ft 446 kts 176°
2026-05-06 11:44 47.48517 2.29797 29932 ft 443 kts 176°
2026-05-06 11:44 47.45445 2.29989 30329 ft 441 kts 176°
2026-05-06 11:45 47.42369 2.30182 30548 ft 443 kts 176°
2026-05-06 11:45 47.39282 2.30376 30739 ft 445 kts 176°
2026-05-06 11:45 47.36183 2.30570 30994 ft 446 kts 176°
2026-05-06 11:45 47.33085 2.30763 31283 ft 445 kts 177°
2026-05-06 11:46 47.29989 2.30956 31529 ft 446 kts 177°
2026-05-06 11:46 47.26884 2.31150 31775 ft 447 kts 177°
2026-05-06 11:46 47.23778 2.31343 32049 ft 447 kts 177°
2026-05-06 11:46 47.20669 2.31536 32299 ft 447 kts 177°
2026-05-06 11:47 47.17558 2.31730 32572 ft 447 kts 177°
2026-05-06 11:47 47.14451 2.31922 32850 ft 446 kts 177°
2026-05-06 11:47 47.11346 2.32115 33090 ft 447 kts 177°
2026-05-06 11:47 47.08235 2.32307 33313 ft 448 kts 177°
2026-05-06 11:48 47.05121 2.32500 33543 ft 448 kts 178°
2026-05-06 11:48 47.02007 2.32692 33771 ft 448 kts 178°
2026-05-06 11:48 46.98927 2.32883 34008 ft 448 kts 178°
2026-05-06 11:48 46.95809 2.33076 34198 ft 449 kts 178°
2026-05-06 11:49 46.92695 2.33267 34404 ft 448 kts 178°
2026-05-06 11:49 46.89579 2.33457 34614 ft 447 kts 178°
2026-05-06 11:49 46.86467 2.33642 34812 ft 447 kts 179°
2026-05-06 11:49 46.83375 2.33449 35002 ft 445 kts 187°
2026-05-06 11:50 46.77319 2.31384 34997 ft 449 kts 195°
2026-05-06 11:50 46.71283 2.28949 34997 ft 450 kts 195°
2026-05-06 11:51 46.65238 2.26560 34993 ft 449 kts 195°
2026-05-06 11:51 46.59262 2.24256 34988 ft 445 kts 195°
2026-05-06 11:52 46.53301 2.21974 34982 ft 442 kts 195°
2026-05-06 11:52 46.47384 2.19707 34986 ft 438 kts 195°
2026-05-06 11:53 46.41451 2.17436 34997 ft 443 kts 195°
2026-05-06 11:53 46.35446 2.15144 34999 ft 449 kts 195°
2026-05-06 11:54 46.29370 2.12833 35000 ft 453 kts 195°
2026-05-06 11:54 46.23269 2.10520 34999 ft 454 kts 195°
2026-05-06 11:55 46.17194 2.08024 34997 ft 453 kts 200°
2026-05-06 11:55 46.11305 2.04811 34990 ft 452 kts 202°
2026-05-06 11:56 46.05456 2.01514 35001 ft 450 kts 202°
2026-05-06 11:56 45.99632 1.98279 34989 ft 446 kts 202°
2026-05-06 11:57 45.93890 1.95123 35001 ft 442 kts 202°
2026-05-06 11:57 45.88152 1.91992 35013 ft 439 kts 201°
2026-05-06 11:58 45.82432 1.88887 35010 ft 441 kts 202°
2026-05-06 11:58 45.76662 1.85748 35018 ft 446 kts 202°
2026-05-06 11:59 45.70854 1.82595 35014 ft 451 kts 202°
2026-05-06 11:59 45.64959 1.79405 35008 ft 454 kts 202°
2026-05-06 12:00 45.59068 1.76227 35006 ft 449 kts 202°
2026-05-06 12:00 45.53258 1.73100 35013 ft 444 kts 202°
2026-05-06 12:01 45.47484 1.69998 35014 ft 443 kts 202°
2026-05-06 12:01 45.41718 1.66906 35016 ft 442 kts 202°
2026-05-06 12:02 45.35955 1.63823 35024 ft 443 kts 202°
2026-05-06 12:02 45.30209 1.60756 35028 ft 444 kts 202°
2026-05-06 12:03 45.24414 1.57670 35031 ft 445 kts 202°
2026-05-06 12:03 45.18606 1.54583 35032 ft 447 kts 202°
2026-05-06 12:04 45.12772 1.51490 35036 ft 448 kts 202°
2026-05-06 12:04 45.06929 1.48398 35028 ft 449 kts 202°
2026-05-06 12:05 45.01067 1.45304 35032 ft 450 kts 202°
2026-05-06 12:05 44.95202 1.42214 35039 ft 450 kts 202°
2026-05-06 12:06 44.89364 1.39145 35050 ft 450 kts 202°
2026-05-06 12:06 44.83479 1.36058 35023 ft 450 kts 202°
2026-05-06 12:07 44.77605 1.32985 35025 ft 449 kts 202°
2026-05-06 12:07 44.71758 1.29932 35030 ft 448 kts 202°
2026-05-06 12:08 44.65928 1.26894 35034 ft 446 kts 202°
2026-05-06 12:08 44.60110 1.23869 35034 ft 445 kts 202°
2026-05-06 12:09 44.54317 1.20863 35036 ft 443 kts 202°
2026-05-06 12:09 44.48543 1.17873 35039 ft 442 kts 202°
2026-05-06 12:10 44.42772 1.14891 35034 ft 442 kts 202°
2026-05-06 12:10 44.37010 1.11920 35041 ft 441 kts 202°
2026-05-06 12:11 44.31288 1.08976 35035 ft 440 kts 202°
2026-05-06 12:11 44.25531 1.06020 35046 ft 440 kts 202°
2026-05-06 12:12 44.19771 1.03069 35040 ft 441 kts 202°
2026-05-06 12:12 44.14007 1.00121 35047 ft 441 kts 202°
2026-05-06 12:13 44.08275 0.97196 35034 ft 442 kts 202°
2026-05-06 12:13 44.02509 0.94260 35040 ft 441 kts 202°
2026-05-06 12:14 43.96741 0.91328 35046 ft 441 kts 202°
2026-05-06 12:14 43.90978 0.88404 35042 ft 441 kts 202°
2026-05-06 12:15 43.85046 0.86155 35054 ft 443 kts 194°
2026-05-06 12:15 43.78974 0.84582 35053 ft 443 kts 193°
2026-05-06 12:16 43.72958 0.83034 35055 ft 442 kts 194°
2026-05-06 12:16 43.66928 0.81445 35056 ft 440 kts 194°
2026-05-06 12:17 43.61886 0.80103 35058 ft 439 kts 194°
2026-05-06 12:17 43.54915 0.78245 35059 ft 438 kts 194°
2026-05-06 12:18 43.49943 0.76924 35066 ft 437 kts 194°
2026-05-06 12:18 43.43963 0.75337 35062 ft 437 kts 194°
2026-05-06 12:19 43.38001 0.73760 35063 ft 436 kts 195°
2026-05-06 12:19 43.32049 0.72187 35063 ft 435 kts 195°
2026-05-06 12:20 43.26137 0.70629 35063 ft 434 kts 195°
2026-05-06 12:20 43.20205 0.69069 35060 ft 434 kts 195°
2026-05-06 12:21 43.14282 0.67514 35064 ft 433 kts 195°
2026-05-06 12:21 43.08367 0.65964 35061 ft 433 kts 195°
2026-05-06 12:22 43.02447 0.64415 35058 ft 433 kts 195°
2026-05-06 12:22 42.96573 0.62882 35054 ft 433 kts 195°
2026-05-06 12:23 42.90662 0.61343 35050 ft 432 kts 195°
2026-05-06 12:23 42.84745 0.59803 35089 ft 434 kts 195°
2026-05-06 12:24 42.81773 0.59031 35293 ft 434 kts 195°
2026-05-06 12:24 42.78812 0.58264 35553 ft 432 kts 195°
2026-05-06 12:24 42.75854 0.57498 35667 ft 434 kts 195°
2026-05-06 12:24 42.72884 0.56728 35829 ft 434 kts 195°
2026-05-06 12:25 42.66986 0.55206 35943 ft 431 kts 195°
2026-05-06 12:25 42.61057 0.53687 35943 ft 436 kts 195°
2026-05-06 12:26 42.55087 0.52161 35943 ft 438 kts 195°
2026-05-06 12:26 42.49090 0.50630 35927 ft 439 kts 195°
2026-05-06 12:27 42.43093 0.49102 35933 ft 438 kts 195°
2026-05-06 12:27 42.37104 0.47579 35923 ft 437 kts 195°
2026-05-06 12:28 42.31190 0.46071 35916 ft 434 kts 195°
2026-05-06 12:28 42.25274 0.44559 35923 ft 432 kts 195°
2026-05-06 12:29 42.19372 0.43053 35928 ft 430 kts 195°
2026-05-06 12:29 42.13504 0.41560 35937 ft 428 kts 195°
2026-05-06 12:30 42.07657 0.40074 35916 ft 427 kts 195°
2026-05-06 12:30 42.01822 0.38594 35933 ft 426 kts 195°
2026-05-06 12:31 41.96030 0.37129 35944 ft 426 kts 195°
2026-05-06 12:31 41.90198 0.35663 35952 ft 426 kts 195°
2026-05-06 12:32 41.84367 0.34199 35960 ft 427 kts 195°
2026-05-06 12:32 41.78521 0.32732 35956 ft 428 kts 195°
2026-05-06 12:33 41.72667 0.31269 35958 ft 428 kts 195°
2026-05-06 12:33 41.66812 0.29818 35965 ft 428 kts 195°
2026-05-06 12:34 41.60946 0.28368 35952 ft 428 kts 195°
2026-05-06 12:34 41.55084 0.26919 35947 ft 428 kts 195°
2026-05-06 12:35 41.49232 0.25476 35956 ft 427 kts 195°
2026-05-06 12:35 41.43415 0.24043 35952 ft 427 kts 195°
2026-05-06 12:36 41.37568 0.22605 35944 ft 427 kts 195°
2026-05-06 12:36 41.31730 0.21157 35949 ft 426 kts 196°
2026-05-06 12:37 41.25907 0.19678 35954 ft 426 kts 196°
2026-05-06 12:37 41.20088 0.18242 35945 ft 425 kts 195°
2026-05-06 12:38 41.14274 0.16815 35957 ft 424 kts 196°
2026-05-06 12:38 41.08605 0.14877 35961 ft 419 kts 202°
2026-05-06 12:39 41.03042 0.12565 35960 ft 419 kts 202°
2026-05-06 12:39 40.97468 0.10292 35954 ft 419 kts 202°
2026-05-06 12:40 40.91888 0.08065 35957 ft 419 kts 202°
2026-05-06 12:40 40.86312 0.05847 35963 ft 418 kts 202°
2026-05-06 12:41 40.80744 0.03609 35960 ft 418 kts 202°
2026-05-06 12:41 40.75213 0.01380 35953 ft 418 kts 202°
2026-05-06 12:42 40.69642 -0.00858 35959 ft 418 kts 202°
2026-05-06 12:42 40.64057 -0.03097 35957 ft 419 kts 202°
2026-05-06 12:43 40.58473 -0.05331 35959 ft 419 kts 202°
2026-05-06 12:43 40.52928 -0.07539 35973 ft 419 kts 202°
2026-05-06 12:44 40.47341 -0.09744 35974 ft 419 kts 202°
2026-05-06 12:44 40.41763 -0.11941 35980 ft 418 kts 202°
2026-05-06 12:45 40.36191 -0.14136 35979 ft 418 kts 202°
2026-05-06 12:46 40.27855 -0.17414 35982 ft 417 kts 202°
2026-05-06 12:46 40.22309 -0.19595 35983 ft 416 kts 202°
2026-05-06 12:47 40.16778 -0.21783 35984 ft 415 kts 202°
2026-05-06 12:47 40.11251 -0.23967 35970 ft 415 kts 202°
2026-05-06 12:48 40.05737 -0.26138 35972 ft 413 kts 202°
2026-05-06 12:48 40.00231 -0.28308 35958 ft 413 kts 202°
2026-05-06 12:49 39.94716 -0.30442 35955 ft 414 kts 202°
2026-05-06 12:49 39.89192 -0.32563 35963 ft 414 kts 202°
2026-05-06 12:50 39.83665 -0.34710 35948 ft 414 kts 202°
2026-05-06 12:50 39.80942 -0.35772 35960 ft 414 kts 202°
2026-05-06 12:51 39.75864 -0.37748 35961 ft 415 kts 202°
2026-05-06 12:51 39.70335 -0.39895 35959 ft 415 kts 202°
2026-05-06 12:52 39.64786 -0.42045 35960 ft 416 kts 202°
2026-05-06 12:52 39.59230 -0.44196 35961 ft 417 kts 202°
2026-05-06 12:53 39.53674 -0.46342 35963 ft 416 kts 202°
2026-05-06 12:53 39.47974 -0.47759 35971 ft 427 kts 190°
2026-05-06 12:54 39.41970 -0.47224 35971 ft 437 kts 179°
2026-05-06 12:54 39.35946 -0.46050 35961 ft 437 kts 179°
2026-05-06 12:55 39.29943 -0.44936 35953 ft 436 kts 179°
2026-05-06 12:55 39.23939 -0.43862 35952 ft 435 kts 179°
2026-05-06 12:56 39.17982 -0.42792 35951 ft 434 kts 179°
2026-05-06 12:56 39.12001 -0.41716 35950 ft 434 kts 179°
2026-05-06 12:57 39.06018 -0.40640 35957 ft 434 kts 179°
2026-05-06 12:57 39.00036 -0.39568 35952 ft 434 kts 179°
2026-05-06 12:58 38.94057 -0.38498 35958 ft 433 kts 179°
2026-05-06 12:58 38.88084 -0.37431 35966 ft 433 kts 179°
2026-05-06 12:59 38.82117 -0.36367 35964 ft 433 kts 179°
2026-05-06 12:59 38.76151 -0.35304 35966 ft 433 kts 179°
2026-05-06 13:00 38.70190 -0.34245 35965 ft 433 kts 179°
2026-05-06 13:00 38.64224 -0.33186 35959 ft 433 kts 179°
2026-05-06 13:01 38.58297 -0.32136 35958 ft 433 kts 179°
2026-05-06 13:01 38.52322 -0.31080 35939 ft 433 kts 179°
2026-05-06 13:02 38.46351 -0.30025 35933 ft 433 kts 179°
2026-05-06 13:02 38.40382 -0.28972 35935 ft 433 kts 179°
2026-05-06 13:03 38.34413 -0.27920 35936 ft 433 kts 179°
2026-05-06 13:03 38.28438 -0.26856 35933 ft 433 kts 179°
2026-05-06 13:04 38.22460 -0.25791 35935 ft 433 kts 179°
2026-05-06 13:04 38.16486 -0.24729 35932 ft 434 kts 179°
2026-05-06 13:05 38.10504 -0.23668 35924 ft 434 kts 179°
2026-05-06 13:05 38.04559 -0.22616 35927 ft 434 kts 179°
2026-05-06 13:06 37.98569 -0.21560 35934 ft 434 kts 179°
2026-05-06 13:06 37.92570 -0.20513 35924 ft 435 kts 179°
2026-05-06 13:07 37.86573 -0.19472 35927 ft 435 kts 179°
2026-05-06 13:07 37.80573 -0.18431 35921 ft 435 kts 179°
2026-05-06 13:08 37.74614 -0.17398 35922 ft 435 kts 179°
2026-05-06 13:08 37.68599 -0.16359 35510 ft 442 kts 179°
2026-05-06 13:08 37.65548 -0.15834 34948 ft 441 kts 179°
2026-05-06 13:09 37.62507 -0.15307 34325 ft 441 kts 179°
2026-05-06 13:09 37.59467 -0.14781 33652 ft 441 kts 179°
2026-05-06 13:09 37.56424 -0.14255 32913 ft 441 kts 179°
2026-05-06 13:09 37.54410 -0.13907 32570 ft 439 kts 179°
2026-05-06 13:10 37.51400 -0.13385 32090 ft 434 kts 179°
2026-05-06 13:10 37.47426 -0.12698 31447 ft 428 kts 179°
2026-05-06 13:10 37.45479 -0.12362 31136 ft 425 kts 179°
2026-05-06 13:10 37.42556 -0.11859 30669 ft 421 kts 179°
2026-05-06 13:11 37.39665 -0.11363 30216 ft 418 kts 179°
2026-05-06 13:11 37.36786 -0.10870 29721 ft 414 kts 179°
2026-05-06 13:11 37.33943 -0.10383 29207 ft 410 kts 179°
2026-05-06 13:11 37.31130 -0.09901 28746 ft 405 kts 179°
2026-05-06 13:12 37.28349 -0.09425 28274 ft 401 kts 179°
2026-05-06 13:12 37.25598 -0.08954 27803 ft 397 kts 179°
2026-05-06 13:12 37.22871 -0.08489 27355 ft 393 kts 179°
2026-05-06 13:12 37.20205 -0.08034 26899 ft 390 kts 179°
2026-05-06 13:13 37.17530 -0.07579 26449 ft 387 kts 179°
2026-05-06 13:13 37.14875 -0.07127 26008 ft 383 kts 179°
2026-05-06 13:13 37.12235 -0.06677 25570 ft 381 kts 179°
2026-05-06 13:13 37.09618 -0.06231 25125 ft 378 kts 179°
2026-05-06 13:14 37.07013 -0.05787 24662 ft 377 kts 178°
2026-05-06 13:14 37.04423 -0.05345 24231 ft 374 kts 178°
2026-05-06 13:14 37.01849 -0.04906 23798 ft 372 kts 178°
2026-05-06 13:14 36.99279 -0.04469 23321 ft 371 kts 178°
2026-05-06 13:15 36.96729 -0.04035 22838 ft 369 kts 178°
2026-05-06 13:15 36.94192 -0.03604 22382 ft 366 kts 178°
2026-05-06 13:15 36.91710 -0.03182 21954 ft 363 kts 178°
2026-05-06 13:15 36.89215 -0.02758 21529 ft 360 kts 178°
2026-05-06 13:16 36.86739 -0.02338 21090 ft 358 kts 178°
2026-05-06 13:16 36.84279 -0.01932 20660 ft 356 kts 178°
2026-05-06 13:16 36.81826 -0.01534 20234 ft 354 kts 178°
2026-05-06 13:16 36.79388 -0.01140 19818 ft 352 kts 178°
2026-05-06 13:17 36.76956 -0.00748 19396 ft 351 kts 177°
2026-05-06 13:17 36.74541 -0.00358 18984 ft 349 kts 177°
2026-05-06 13:17 36.72134 0.00031 18582 ft 348 kts 177°
2026-05-06 13:17 36.69737 0.00419 18171 ft 347 kts 177°
2026-05-06 13:18 36.67342 0.00806 17702 ft 346 kts 177°
2026-05-06 13:18 36.64962 0.01191 17266 ft 344 kts 176°
2026-05-06 13:18 36.62599 0.01573 16856 ft 342 kts 176°
2026-05-06 13:18 36.60249 0.01953 16448 ft 339 kts 176°
2026-05-06 13:19 36.57913 0.02330 16052 ft 337 kts 176°
2026-05-06 13:19 36.55593 0.02705 15656 ft 335 kts 176°
2026-05-06 13:19 36.53289 0.03076 15268 ft 333 kts 176°
2026-05-06 13:19 36.51030 0.03440 14881 ft 331 kts 175°
2026-05-06 13:20 36.48746 0.03808 14495 ft 329 kts 175°
2026-05-06 13:20 36.46477 0.04173 14114 ft 328 kts 175°
2026-05-06 13:20 36.44220 0.04536 13718 ft 326 kts 175°
2026-05-06 13:20 36.41973 0.04897 13290 ft 325 kts 175°
2026-05-06 13:21 36.39733 0.05258 12871 ft 323 kts 175°
2026-05-06 13:21 36.37507 0.05615 12475 ft 322 kts 175°
2026-05-06 13:21 36.35293 0.05971 12085 ft 320 kts 175°
2026-05-06 13:21 36.33090 0.06324 11698 ft 318 kts 175°
2026-05-06 13:22 36.30898 0.06676 11311 ft 317 kts 175°
2026-05-06 13:22 36.28717 0.07028 10915 ft 316 kts 174°
2026-05-06 13:22 36.26533 0.07395 10557 ft 315 kts 174°
2026-05-06 13:22 36.24427 0.07755 10420 ft 306 kts 174°
2026-05-06 13:23 36.22349 0.08111 10273 ft 297 kts 174°
2026-05-06 13:23 36.20329 0.08457 10134 ft 289 kts 174°
2026-05-06 13:23 36.18361 0.08793 10012 ft 281 kts 174°
2026-05-06 13:23 36.16450 0.09117 9857 ft 275 kts 175°
2026-05-06 13:24 36.14558 0.09438 9559 ft 274 kts 174°
2026-05-06 13:24 36.12676 0.09756 9282 ft 272 kts 174°
2026-05-06 13:24 36.10803 0.10072 9002 ft 270 kts 174°
2026-05-06 13:24 36.08945 0.10386 8723 ft 269 kts 174°
2026-05-06 13:25 36.07096 0.10699 8435 ft 267 kts 174°
2026-05-06 13:25 36.05259 0.11009 8168 ft 266 kts 174°
2026-05-06 13:25 36.03428 0.11319 7906 ft 264 kts 174°
2026-05-06 13:25 36.01665 0.11618 7854 ft 248 kts 175°
2026-05-06 13:26 36.00007 0.11899 7790 ft 233 kts 174°
2026-05-06 13:26 35.98438 0.12167 7680 ft 222 kts 175°
2026-05-06 13:26 35.96943 0.12422 7564 ft 212 kts 175°
2026-05-06 13:26 35.95493 0.12663 7315 ft 208 kts 175°
2026-05-06 13:27 35.94085 0.12888 7015 ft 207 kts 175°
2026-05-06 13:27 35.92662 0.13130 6701 ft 206 kts 175°
2026-05-06 13:27 35.91290 0.13359 6612 ft 191 kts 179°
2026-05-06 13:27 35.90047 0.12984 6329 ft 184 kts 220°
2026-05-06 13:28 35.89234 0.11830 6108 ft 178 kts 243°
2026-05-06 13:28 35.88686 0.10445 5835 ft 180 kts 245°
2026-05-06 13:28 35.88165 0.09067 5719 ft 174 kts 245°
2026-05-06 13:28 35.87664 0.07704 5619 ft 177 kts 246°
2026-05-06 13:29 35.87150 0.06312 5542 ft 180 kts 246°
2026-05-06 13:29 35.86628 0.04896 5456 ft 182 kts 246°
2026-05-06 13:29 35.86098 0.03468 5375 ft 185 kts 246°
2026-05-06 13:29 35.85563 0.02029 5302 ft 182 kts 246°
2026-05-06 13:30 35.85064 0.00657 5171 ft 170 kts 246°
2026-05-06 13:30 35.84583 -0.00633 5151 ft 161 kts 246°
2026-05-06 13:30 35.84127 -0.01854 5053 ft 156 kts 246°
2026-05-06 13:30 35.83675 -0.03063 5005 ft 155 kts 245°
2026-05-06 13:31 35.83221 -0.04278 4943 ft 157 kts 246°
2026-05-06 13:31 35.82763 -0.05501 4883 ft 158 kts 246°
2026-05-06 13:31 35.82302 -0.06731 4815 ft 158 kts 246°
2026-05-06 13:31 35.81840 -0.07962 4752 ft 158 kts 245°
2026-05-06 13:32 35.81380 -0.09190 4680 ft 158 kts 245°
2026-05-06 13:32 35.80917 -0.10421 4612 ft 158 kts 245°
2026-05-06 13:32 35.80447 -0.11674 4515 ft 166 kts 245°
2026-05-06 13:32 35.79963 -0.12964 4470 ft 167 kts 246°
2026-05-06 13:33 35.79477 -0.14263 4394 ft 166 kts 246°
2026-05-06 13:33 35.78993 -0.15551 4344 ft 166 kts 245°
2026-05-06 13:33 35.78504 -0.16848 4284 ft 168 kts 246°
2026-05-06 13:33 35.78012 -0.18161 4184 ft 167 kts 246°
2026-05-06 13:34 35.77539 -0.19425 4113 ft 155 kts 246°
2026-05-06 13:34 35.77083 -0.20635 4064 ft 158 kts 246°
2026-05-06 13:34 35.76624 -0.21859 3992 ft 155 kts 246°
2026-05-06 13:34 35.76192 -0.23011 3942 ft 147 kts 246°
2026-05-06 13:35 35.75766 -0.24142 3848 ft 144 kts 245°
2026-05-06 13:35 35.75353 -0.25273 3826 ft 147 kts 245°
2026-05-06 13:35 35.74919 -0.26422 3727 ft 146 kts 246°
2026-05-06 13:35 35.74484 -0.27559 3687 ft 149 kts 245°
2026-05-06 13:36 35.73998 -0.28687 3623 ft 149 kts 242°
2026-05-06 13:36 35.73524 -0.29797 3529 ft 142 kts 245°
2026-05-06 13:36 35.73089 -0.30911 3475 ft 147 kts 246°
2026-05-06 13:36 35.72678 -0.32040 3432 ft 144 kts 248°
2026-05-06 13:37 35.72272 -0.33185 3364 ft 147 kts 248°
2026-05-06 13:37 35.71874 -0.34313 3256 ft 140 kts 247°
2026-05-06 13:37 35.71481 -0.35428 3220 ft 142 kts 248°
2026-05-06 13:37 35.71097 -0.36530 3216 ft 143 kts 248°
2026-05-06 13:38 35.70716 -0.37639 3297 ft 144 kts 247°
2026-05-06 13:38 35.70315 -0.38792 3281 ft 141 kts 249°
2026-05-06 13:38 35.69938 -0.39922 3262 ft 142 kts 250°
2026-05-06 13:38 35.69556 -0.41041 3241 ft 143 kts 249°
2026-05-06 13:39 35.69159 -0.42169 3237 ft 144 kts 248°
2026-05-06 13:39 35.68780 -0.43290 3228 ft 141 kts 249°
2026-05-06 13:39 35.68403 -0.44426 3047 ft 141 kts 248°
2026-05-06 13:39 35.68024 -0.45515 2887 ft 137 kts 248°
2026-05-06 13:40 35.67652 -0.46614 2679 ft 140 kts 250°
2026-05-06 13:40 35.67292 -0.47686 2539 ft 139 kts 250°
2026-05-06 13:40 35.66922 -0.48778 2358 ft 136 kts 249°
2026-05-06 13:40 35.66551 -0.49865 2157 ft 140 kts 249°
2026-05-06 13:41 35.66176 -0.50960 1987 ft 135 kts 250°
2026-05-06 13:41 35.65817 -0.52015 1802 ft 133 kts 249°
2026-05-06 13:41 35.65455 -0.53075 1645 ft 136 kts 250°
2026-05-06 13:41 35.65078 -0.54180 1441 ft 144 kts 251°
2026-05-06 13:42 35.64706 -0.55280 1272 ft 135 kts 251°
2026-05-06 13:42 35.64337 -0.56362 1042 ft 135 kts 251°
2026-05-06 13:42 35.63967 -0.57414 877 ft 134 kts 249°
2026-05-06 13:42 35.63609 -0.58463 717 ft 131 kts 250°
2026-05-06 13:43 35.63241 -0.59540 553 ft 137 kts 250°
2026-05-06 13:43 35.62873 -0.60651 392 ft 141 kts 250°
2026-05-06 13:43 35.62508 -0.61695 316 ft 123 kts 251°
2026-05-06 13:43 35.62236 -0.62538 309 ft 85 kts 247°
2026-05-06 13:44 35.62106 -0.62916 308 ft 25 kts 245°
2026-05-06 13:44 35.61967 -0.62971 309 ft 14 kts 158°
2026-05-06 13:44 35.61898 -0.62935 308 ft 10 kts 156°
2026-05-06 13:44 35.61832 -0.62900 308 ft 10 kts 156°
2026-05-06 13:45 35.61768 -0.62867 308 ft 10 kts 159°
2026-05-06 13:45 35.61651 -0.62790 309 ft 9 kts 134°
2026-05-06 13:45 35.61620 -0.62721 309 ft 9 kts 104°
2026-05-06 13:46 35.61618 -0.62641 309 ft 9 kts 78°
2026-05-06 13:46 35.61643 -0.62563 309 ft 10 kts 68°
2026-05-06 13:46 35.61672 -0.62475 309 ft 12 kts 68°
2026-05-06 13:46 35.61705 -0.62377 309 ft 13 kts 68°
2026-05-06 13:47 35.61741 -0.62270 309 ft 14 kts 68°
2026-05-06 13:47 35.61780 -0.62157 309 ft 14 kts 67°
2026-05-06 13:47 35.61818 -0.62048 308 ft 14 kts 67°
2026-05-06 13:47 35.61855 -0.61941 309 ft 14 kts 67°
2026-05-06 13:48 35.61894 -0.61828 308 ft 15 kts 67°
2026-05-06 13:48 35.61937 -0.61706 308 ft 16 kts 67°
2026-05-06 13:48 35.61982 -0.61577 309 ft 17 kts 67°
2026-05-06 13:48 35.62029 -0.61441 309 ft 18 kts 66°
2026-05-06 13:49 35.62037 -0.61392 309 ft 4 kts 103°
2026-05-06 13:49 35.62016 -0.61374 308 ft 4 kts 156°
2026-05-06 13:49 35.61986 -0.61355 309 ft 5 kts 136°
2026-05-06 13:49 35.61964 -0.61315 309 ft 6 kts 132°
2026-05-06 13:50 35.61924 -0.61300 309 ft 6 kts 181°
2026-05-06 13:50 35.61877 -0.61317 309 ft 8 kts 196°
2026-05-06 13:50 35.61828 -0.61347 307 ft 9 kts 204°
2026-05-06 13:50 35.61768 -0.61373 309 ft 10 kts 191°
2026-05-06 13:51 35.61710 -0.61380 309 ft 0 kts 160°
2026-05-06 13:51 35.61709 -0.61376 309 ft 1 kts 120°
2026-05-06 13:51 35.61706 -0.61359 309 ft 5 kts 106°
2026-05-06 13:52 35.61700 -0.61322 309 ft 1 kts 100°
2026-05-06 13:52 35.61699 -0.61311 309 ft 1 kts 98°
2026-05-06 13:52 35.61698 -0.61300 308 ft 1 kts 97°
2026-05-06 13:52 35.61697 -0.61289 309 ft 1 kts 97°
2026-05-06 13:53 35.61697 -0.61287 309 ft 0 kts 97°